[[{"header":{"parameterUnit":"m.s-1","parameterCategory":1,"la1":30.2992,"la2":30.254,"lo1":-89.0895,"lo2":-89.0443,"dy":0.0025,"dx":0.0025,"nx":19,"ny":19,"refTime":"2026-05-14T03:00:00:Z","depth":0,"parameterNumber":2,"parameterNumberName":"U-component_of_WINDS"},"data":[0,0,0,-5.6596,-5.6599,-5.6701,-5.6701,-5.687,-5.6872,0,0,0,0,0,0,0,0,0,0,0,-5.6591,-5.6593,-5.6596,-5.6599,-5.6701,-5.6701,-5.687,-5.6872,0,0,0,0,0,0,0,0,0,0,0,-5.659,-5.6593,-5.6595,-5.66,-5.6701,-5.6701,-5.687,-5.6778,0,0,0,0,0,0,0,0,0,0,-5.6673,-5.6694,-5.6592,-5.6595,-5.66,-5.6701,-5.6701,-5.6773,-5.6784,-5.6842,0,-5.6901,0,-5.689,-5.6886,-5.6887,0,0,0,-5.658,-5.6685,-5.6689,-5.6596,-5.6601,-5.67,-5.6649,-5.6779,-5.6791,-5.6856,-5.6903,-5.6908,-5.6893,-5.6888,-5.6889,-5.7287,-5.729,0,0,-5.6574,-5.6623,-5.6681,-5.6699,-5.6687,-5.6646,-5.6653,-5.6786,-5.6839,-5.6904,-5.6911,-5.6895,-5.6889,-5.6891,-5.7284,-5.7288,0,0,0,-5.6571,-5.662,-5.662,-5.6693,-5.6708,-5.665,-5.6657,-5.6833,-5.6829,-5.6913,-5.6897,-5.689,-5.6893,-5.7281,-5.7285,-5.7468,0,0,0,-5.6567,-5.6618,-5.6619,-5.665,-5.6707,-5.6773,-5.6703,-5.682,-5.6834,-5.6897,-5.689,-5.6895,-5.7278,-5.7283,-5.7456,-5.7545,0,0,0,-5.6576,-5.6619,-5.6642,-5.6652,-5.6698,-5.6769,-5.6772,-5.6822,-5.6825,-5.6887,-5.6896,-5.7276,-5.7282,-5.7446,-5.7527,-5.7661,0,0,0,-5.66,-5.6804,-5.6646,-5.6868,-5.6698,-5.6883,-5.6771,-5.6906,-5.6981,-5.6891,-5.7278,-5.7285,-5.7442,-5.7517,-5.765,-5.778,-5.784,0,0,-5.6885,-5.684,-5.6967,-5.6829,-5.7054,-5.6863,-5.7115,-5.7137,-5.7098,-5.7226,-5.7235,-5.746,-5.7526,-5.7659,-5.8163,-5.8211,0,0,0,-5.7074,-5.7165,-5.7214,-5.7288,-5.7311,-5.7336,-5.7315,-5.7323,-5.7429,-5.7175,-5.7544,-5.7583,-5.7658,-5.7718,-5.7758,-5.7818,-5.7316,-5.7315,-5.7314,-5.7545,-5.7485,-5.7689,-5.7641,-5.7715,-5.7691,-5.7744,-5.775,-5.7668,-5.7757,-5.7793,-5.8106,-5.8178,-5.8208,-5.8272,-5.786,-5.786,-5.7861,-5.7861,-5.7954,-5.8072,-5.7959,-5.8116,-5.8051,-5.8182,-5.8167,-5.8104,-5.8215,-5.8074,-5.8138,-5.7986,-5.8263,-5.8315,-5.7875,-5.7872,-5.7871,-5.7869,-5.7868,-5.8253,-5.8299,-5.8306,-5.8405,-5.8489,-5.8433,-5.8545,-5.8482,-5.8424,-5.8487,-5.8517,-5.8513,-5.8499,-5.8507,-5.8508,-5.8509,-5.851,-5.8511,-5.8511,-5.8559,-5.8561,-5.8663,-5.8705,-5.8742,-5.8785,-5.8763,-5.8799,-5.8821,-5.8767,-5.8766,-5.8674,-5.8303,-5.8208,-5.8528,-5.8525,-5.8523,-5.8521,-5.852,-5.8989,-5.8882,-5.904,-5.9078,-5.912,-5.9206,-5.9125,-5.9203,-5.9223,-5.928,-5.9175,-5.8912,-5.8861,-5.8828,-5.8749,-5.9189,-5.9189,-5.9189,-5.9189,-5.9239,-5.9208,-5.9353,-5.9418,-5.9475,-5.9418,-5.9596,-5.9582,-5.9549,-5.9558,-5.9486,-5.9377,-5.9347,-5.9314,-5.9271,-5.9196,-5.974,-5.974,-5.9741,-5.9498,-5.9469,-5.9633,-5.9601,-5.9629,-5.9654,-5.9818,-5.9896,-5.9838,-5.9762,-5.9562,-5.9539,-5.9363,-5.931,-5.9225,-5.916,-5.9021,0,0]},{"header":{"parameterUnit":"m.s-1","parameterCategory":1,"la1":30.2992,"la2":30.254,"lo1":-89.0895,"lo2":-89.0443,"dy":0.0025,"dx":0.0025,"nx":19,"ny":19,"refTime":"2026-05-14T03:00:00:Z","depth":0,"parameterNumber":3,"parameterNumberName":"V-component_of_WINDS"},"data":[0,0,0,1.6569,1.6569,1.6538,1.6537,1.6521,1.6521,0,0,0,0,0,0,0,0,0,0,0,1.6593,1.6593,1.6569,1.6569,1.6538,1.6537,1.6521,1.6521,0,0,0,0,0,0,0,0,0,0,0,1.6593,1.6593,1.6594,1.6569,1.6538,1.6537,1.6521,1.6536,0,0,0,0,0,0,0,0,0,0,1.6562,1.6598,1.6593,1.6594,1.6569,1.6538,1.6537,1.6536,1.6535,1.6545,0,1.6558,0,1.654,1.6521,1.6521,0,0,0,1.6558,1.6599,1.6578,1.6594,1.6569,1.6538,1.6548,1.6535,1.6534,1.6544,1.6558,1.6557,1.6539,1.6521,1.6521,1.662,1.6621,0,0,1.6559,1.6595,1.6579,1.6578,1.6585,1.655,1.6548,1.6534,1.6552,1.6558,1.6556,1.6539,1.6521,1.6521,1.6619,1.662,0,0,0,1.6572,1.6596,1.6575,1.6579,1.6572,1.6549,1.6547,1.6552,1.6542,1.6555,1.6539,1.6521,1.6521,1.6618,1.6619,1.6703,0,0,0,1.6572,1.6604,1.6576,1.6598,1.6573,1.6562,1.6566,1.6543,1.654,1.6539,1.6521,1.6522,1.6616,1.6618,1.6698,1.6736,0,0,0,1.659,1.6605,1.6606,1.6599,1.6587,1.6561,1.655,1.6542,1.6531,1.6521,1.6522,1.6616,1.6618,1.6694,1.6729,1.6773,0,0,0,1.6618,1.6679,1.6608,1.667,1.6588,1.6613,1.655,1.6566,1.6568,1.6521,1.6617,1.6619,1.6692,1.6725,1.6769,1.6817,1.684,0,0,1.6715,1.6692,1.6726,1.6661,1.6708,1.6615,1.6675,1.6642,1.6608,1.6618,1.6619,1.67,1.6729,1.6772,1.6958,1.6977,0,0,0,1.6768,1.6793,1.6798,1.6802,1.678,1.6764,1.6718,1.6707,1.6714,1.662,1.6726,1.6742,1.6767,1.6788,1.6804,1.6823,1.663,1.663,1.663,1.6955,1.691,1.6963,1.6915,1.692,1.6874,1.6874,1.685,1.6801,1.6828,1.683,1.6948,1.6975,1.6986,1.7007,1.6851,1.6852,1.6852,1.6852,1.7093,1.7121,1.7058,1.7086,1.7039,1.7062,1.7021,1.6987,1.7002,1.6942,1.6961,1.69,1.7009,1.7024,1.6858,1.6857,1.6856,1.6856,1.6855,1.721,1.7216,1.7201,1.7204,1.7211,1.716,1.7179,1.7134,1.7092,1.7111,1.711,1.7108,1.7101,1.7113,1.7114,1.7114,1.7115,1.7115,1.7115,1.7337,1.7319,1.734,1.7323,1.7321,1.7312,1.7269,1.7265,1.725,1.7216,1.7216,1.7166,1.7028,1.6994,1.7121,1.712,1.7119,1.7119,1.7118,1.7494,1.7452,1.7485,1.7483,1.7461,1.7472,1.7415,1.7413,1.7403,1.7414,1.7361,1.7266,1.7239,1.7226,1.7198,1.737,1.737,1.737,1.737,1.7594,1.7576,1.7601,1.7601,1.7596,1.7549,1.7589,1.7556,1.7516,1.7507,1.7476,1.7435,1.7424,1.7403,1.7387,1.736,1.7569,1.757,1.757,1.7688,1.7668,1.771,1.7671,1.7651,1.7635,1.7671,1.7674,1.7619,1.7577,1.75,1.7492,1.7425,1.7406,1.7361,1.7336,1.7285,0,0]}]]